Regional Weather Roundup
Issued by NWS

Home | Current Version | Previous Version | Graphics & Text | Print | Product List | Glossary On
Versions: 1 2 3 4 5 6 7 8 9 10 11 12 13 14 15 16 17 18 19 20 21 22 23 24 25 26 27 28 29 30 31 32 33 34 35 36 37 38 39 40 41 42 43 44 45 46 47 48 49 50
000
ASUS43 KBIS 221902
RWRND

NORTH DAKOTA REGIONAL WEATHER ROUNDUP
NATIONAL WEATHER SERVICE BISMARCK ND
100 PM CST WED FEB 22 2017

NOTE: "FAIR" INDICATES FEW OR NO CLOUDS BELOW 12,000 FEET WITH NO
SIGNIFICANT WEATHER AND/OR OBSTRUCTIONS TO VISIBILITY.


NDZ001>003-009>011-017-222000-
NORTHWEST NORTH DAKOTA

CITY           SKY/WX    TMP DP  RH WIND       PRES   REMARKS
WILLISTON      CLOUDY    32  26  78 N13       29.92R
MINOT          CLOUDY    33  28  81 N13       29.86S
MINOT AFB      CLOUDY    32  27  82 N13       29.86R
$$

NDZ018>021-031>035-040>046-222000-
SOUTHWEST NORTH DAKOTA

CITY           SKY/WX    TMP DP  RH WIND       PRES   REMARKS
BISMARCK       LGT SNOW  35  33  92 N9        29.82R FOG
DICKINSON      LGT SNOW  30  26  85 N13       29.82S FOG     WCI  20
GARRISON         N/A     31  29  92 N9        29.84R
HETTINGER ARPT CLOUDY    33  29  85 N17       29.82R
$$

NDZ004>008-012>016-024-026-027-054-222000-
NORTHEAST NORTH DAKOTA

CITY           SKY/WX    TMP DP  RH WIND       PRES   REMARKS
GRAND FORKS    CLOUDY    35  25  66 N23G30    29.78S
GRND FRKS AFB  CLOUDY    33  29  85 NE18      29.79S
DEVILS LAKE    CLOUDY    31  27  85 N17       29.83R WCI  19
$$

NDZ022-023-025-028>030-036>039-047>053-222000-
SOUTHEAST NORTH DAKOTA

CITY           SKY/WX    TMP DP  RH WIND       PRES   REMARKS
FARGO          SNOW      34  33  96 N15       29.70S VSB 1/2
JAMESTOWN      LGT SNOW  32  31  96 N14       29.75S VSB 3/4
$$





USA.gov is the U.S. government's official web portal to all federal, state and local government web resources and services.